| time (UTC) | temp C | wind direction | speed KPH | gust KPH | rain 1hr cm | rain 24hr cm | rain mn cm | humidity % | barometer mb |
| 20260502194506 | 15 | 344 | 3.2 | 4.8 | 0.00 | 0.05 | 0.05 | 60 | 1013.8 |
| 20260502192506 | 16 | 344 | 1.6 | 4.8 | 0.00 | 0.05 | 0.05 | 61 | 1013.8 |
| 20260502192006 | 16 | 344 | 1.6 | 4.8 | 0.00 | 0.05 | 0.05 | 61 | 1013.8 |
| 20260502191506 | 16 | 344 | 1.6 | 4.8 | 0.00 | 0.05 | 0.05 | 61 | 1013.8 |
| 20260502191006 | 16 | 344 | 1.6 | 8.0 | 0.00 | 0.05 | 0.05 | 60 | 1013.8 |
| 20260502184006 | 16 | 344 | 3.2 | 8.0 | 0.00 | 0.05 | 0.05 | 59 | 1013.8 |
| 20260502183506 | 17 | 344 | 4.8 | 11.3 | 0.00 | 0.05 | 0.05 | 58 | 1013.8 |
| 20260502181506 | 17 | 340 | 3.2 | 9.7 | 0.00 | 0.05 | 0.05 | 55 | 1013.9 |
| 20260502181005 | 17 | 339 | 1.6 | 9.7 | 0.00 | 0.05 | 0.05 | 56 | 1013.9 |
| 20260502163006 | 20 | 340 | 8.0 | 11.3 | 0.00 | 0.05 | 0.05 | 51 | 1014.9 |
| 20260502162006 | 20 | 313 | 6.4 | 11.3 | 0.00 | 0.05 | 0.05 | 49 | 1015.2 |
| 20260502161506 | 20 | 327 | 6.4 | 11.3 | 0.00 | 0.05 | 0.05 | 49 | 1015.3 |
| 20260502161005 | 20 | 342 | 4.8 | 11.3 | 0.00 | 0.05 | 0.05 | 50 | 1015.3 |
| 20260502151505 | 21 | 291 | 8.0 | 12.9 | 0.00 | 0.05 | 0.05 | 46 | 1015.6 |
| 20260502151006 | 21 | 250 | 3.2 | 14.5 | 0.00 | 0.05 | 0.05 | 46 | 1015.7 |
| 20260502122504 | 19 | 244 | 6.4 | 12.9 | 0.00 | 0.05 | 0.05 | 68 | 1017.3 |
| 20260502122005 | 19 | 272 | 9.7 | 16.1 | 0.00 | 0.05 | 0.05 | 69 | 1017.3 |
| 20260502115005 | 18 | 264 | 9.7 | 19.3 | 0.00 | 0.05 | 0.05 | 71 | 1017.6 |
| 20260502114005 | 18 | 250 | 8.0 | 14.5 | 0.00 | 0.05 | 0.05 | 73 | 1017.7 |
| 20260502113505 | 18 | 230 | 11.3 | 20.9 | 0.00 | 0.05 | 0.05 | 73 | 1017.8 |
| 20260502113005 | 18 | 184 | 8.0 | 19.3 | 0.00 | 0.05 | 0.05 | 74 | 1017.8 |
| 20260502110004 | 18 | 231 | 6.4 | 19.3 | 0.00 | 0.05 | 0.05 | 77 | 1017.9 |
| 20260502105505 | 18 | 249 | 9.7 | 19.3 | 0.00 | 0.05 | 0.05 | 76 | 1017.9 |
| 20260502105005 | 18 | 252 | 8.0 | 19.3 | 0.00 | 0.05 | 0.05 | 77 | 1017.9 |
| 20260502104505 | 18 | 261 | 9.7 | 19.3 | 0.00 | 0.05 | 0.05 | 78 | 1017.9 |
| 20260502104005 | 17 | 259 | 6.4 | 16.1 | 0.00 | 0.05 | 0.05 | 79 | 1017.9 |
| 20260502102505 | 18 | 234 | 8.0 | 19.3 | 0.00 | 0.05 | 0.05 | 78 | 1018.0 |
| 20260502102004 | 18 | 245 | 6.4 | 20.9 | 0.00 | 0.05 | 0.05 | 78 | 1017.9 |
| 20260502071008 | 13 | 241 | 0.0 | 0.0 | 0.05 | 0.05 | 0.05 | 85 | 1017.9 |
| 20260502070008 | 13 | 241 | 0.0 | 0.0 | 0.03 | 0.03 | 0.03 | 83 | 1017.9 |
| 20260502065507 | 14 | 241 | 0.0 | 0.0 | 0.03 | 0.03 | 0.03 | 83 | 1017.9 |
| 20260502065007 | 14 | 241 | 0.0 | 0.0 | 0.03 | 0.03 | 0.03 | 82 | 1017.9 |
| 20260502064008 | 14 | 241 | 1.6 | 3.2 | 0.00 | 0.00 | 0.00 | 81 | 1018.2 |
| 20260502063507 | 14 | 241 | 0.0 | 1.6 | 0.00 | 0.00 | 0.00 | 80 | 1018.1 |
| 20260502063007 | 14 | 241 | 0.0 | 3.2 | 0.00 | 0.00 | 0.00 | 79 | 1018.1 |
| 20260502062507 | 14 | 241 | 0.0 | 4.8 | 0.00 | 0.00 | 0.00 | 78 | 1018.2 |
| 20260502054507 | 14 | 241 | 1.6 | 4.8 | 0.00 | 0.00 | 0.00 | 76 | 1018.1 |
| 20260502054007 | 14 | 241 | 0.0 | 1.6 | 0.00 | 0.00 | 0.00 | 75 | 1018.1 |
| 20260502053507 | 14 | 241 | 0.0 | 1.6 | 0.00 | 0.00 | 0.00 | 76 | 1018.0 |
| 20260502053007 | 14 | 241 | 0.0 | 1.6 | 0.00 | 0.00 | 0.00 | 76 | 1018.0 |
| 20260502052507 | 14 | 241 | 0.0 | 3.2 | 0.00 | 0.00 | 0.00 | 75 | 1017.9 |
| 20260502052007 | 14 | 241 | 1.6 | 4.8 | 0.00 | 0.00 | 0.00 | 75 | 1018.0 |
| 20260502045507 | 13 | 242 | 3.2 | 4.8 | 0.00 | 0.00 | 0.00 | 74 | 1017.9 |
| 20260502045007 | 13 | 242 | 3.2 | 8.0 | 0.00 | 0.00 | 0.00 | 73 | 1017.9 |
| 20260502044507 | 13 | 243 | 1.6 | 9.7 | 0.00 | 0.00 | 0.00 | 72 | 1017.9 |
| 20260502044007 | 12 | 24 | 3.2 | 4.8 | 0.00 | 0.00 | 0.00 | 70 | 1018.0 |
| 20260502043507 | 12 | 25 | 0.0 | 4.8 | 0.00 | 0.00 | 0.00 | 69 | 1018.0 |
| 20260502042507 | 11 | 25 | 0.0 | 0.0 | 0.00 | 0.00 | 0.00 | 70 | 1018.0 |
| 20260502042007 | 11 | 25 | 0.0 | 0.0 | 0.00 | 0.00 | 0.00 | 70 | 1017.9 |
| 20260502033007 | 11 | 25 | 0.0 | 0.0 | 0.00 | 0.00 | 0.00 | 69 | 1018.0 |
| 20260502032507 | 11 | 25 | 0.0 | 0.0 | 0.00 | 0.00 | 0.00 | 69 | 1018.1 |
| 20260502032006 | 11 | 25 | 0.0 | 1.6 | 0.00 | 0.00 | 0.00 | 69 | 1018.3 |
| 20260502031507 | 11 | 25 | 1.6 | 3.2 | 0.00 | 0.00 | 0.00 | 69 | 1018.2 |
| 20260502031007 | 11 | 25 | 0.0 | 1.6 | 0.00 | 0.00 | 0.00 | 69 | 1018.4 |
| 20260502023506 | 12 | 25 | 0.0 | 0.0 | 0.00 | 0.00 | 0.00 | 68 | 1018.3 |
| 20260502023007 | 12 | 25 | 0.0 | 0.0 | 0.00 | 0.00 | 0.00 | 66 | 1018.4 |
| 20260502022507 | 12 | 25 | 0.0 | 0.0 | 0.00 | 0.00 | 0.00 | 65 | 1018.4 |
| 20260502022007 | 12 | 25 | 0.0 | 0.0 | 0.00 | 0.00 | 0.00 | 65 | 1018.4 |
| 20260502021507 | 12 | 25 | 0.0 | 0.0 | 0.00 | 0.00 | 0.00 | 65 | 1018.4 |
| 20260502021007 | 12 | 25 | 0.0 | 0.0 | 0.00 | 0.00 | 0.00 | 65 | 1018.4 |
| 20260502020007 | 12 | 25 | 0.0 | 0.0 | 0.00 | 0.00 | 0.00 | 64 | 1018.4 |
| 20260502015507 | 12 | 25 | 0.0 | 0.0 | 0.00 | 0.00 | 0.00 | 64 | 1018.4 |
| 20260502014006 | 13 | 25 | 0.0 | 0.0 | 0.00 | 0.00 | 0.00 | 62 | 1018.5 |
| 20260502013506 | 13 | 25 | 0.0 | 0.0 | 0.00 | 0.00 | 0.00 | 62 | 1018.5 |
| 20260502013007 | 13 | 25 | 0.0 | 0.0 | 0.00 | 0.00 | 0.00 | 61 | 1018.5 |
| 20260502012506 | 13 | 25 | 0.0 | 0.0 | 0.00 | 0.00 | 0.00 | 61 | 1018.6 |
| 20260502012007 | 13 | 25 | 0.0 | 0.0 | 0.00 | 0.00 | 0.00 | 61 | 1018.8 |
| 20260502010006 | 13 | 25 | 0.0 | 0.0 | 0.00 | 0.00 | 0.00 | 60 | 1018.9 |
| 20260502005506 | 13 | 25 | 0.0 | 0.0 | 0.00 | 0.00 | 0.00 | 60 | 1018.9 |
| 20260502005006 | 13 | 25 | 0.0 | 0.0 | 0.00 | 0.00 | 0.00 | 59 | 1018.9 |
| 20260502003506 | 13 | 25 | 1.6 | 4.8 | 0.00 | 0.00 | 0.00 | 58 | 1018.9 |
| 20260502003006 | 14 | 25 | 1.6 | 4.8 | 0.00 | 0.00 | 0.00 | 58 | 1019.0 |
| 20260502000006 | 13 | 25 | 1.6 | 4.8 | 0.00 | 0.00 | 0.00 | 59 | 1019.3 |
| 20260501234506 | 14 | 25 | 0.0 | 0.0 | 0.00 | 0.00 | 0.00 | 60 | 1019.4 |
| 20260501234006 | 14 | 25 | 0.0 | 0.0 | 0.00 | 0.00 | 0.00 | 60 | 1019.4 |
| 20260501233506 | 14 | 25 | 0.0 | 0.0 | 0.00 | 0.00 | 0.00 | 60 | 1019.4 |
| 20260501233006 | 14 | 25 | 0.0 | 1.6 | 0.00 | 0.00 | 0.00 | 60 | 1019.4 |
| 20260501231506 | 14 | 25 | 1.6 | 35.4 | 0.00 | 0.00 | 0.00 | 61 | 1019.5 |
| 20260501231006 | 14 | 25 | 0.0 | 3.2 | 0.00 | 0.00 | 0.00 | 61 | 1019.6 |
| 20260501230006 | 14 | 25 | 0.0 | 0.0 | 0.00 | 0.00 | 0.00 | 62 | 1019.7 |
| 20260501225506 | 14 | 25 | 0.0 | 1.6 | 0.00 | 0.00 | 0.00 | 62 | 1019.7 |
| 20260501224006 | 14 | 25 | 0.0 | 0.0 | 0.00 | 0.00 | 0.00 | 63 | 1019.9 |
| 20260501223506 | 14 | 25 | 0.0 | 0.0 | 0.00 | 0.00 | 0.00 | 64 | 1019.9 |
| 20260501223006 | 14 | 25 | 0.0 | 0.0 | 0.00 | 0.00 | 0.00 | 64 | 1019.9 |
| 20260501222506 | 14 | 25 | 0.0 | 0.0 | 0.00 | 0.00 | 0.00 | 64 | 1019.9 |
| 20260501220006 | 14 | 25 | 0.0 | 0.0 | 0.00 | 0.00 | 0.00 | 66 | 1019.9 |
| 20260501215507 | 14 | 25 | 0.0 | 0.0 | 0.00 | 0.00 | 0.00 | 65 | 1019.9 |
| 20260501215006 | 14 | 25 | 0.0 | 0.0 | 0.00 | 0.00 | 0.00 | 64 | 1019.9 |
| 20260501214506 | 15 | 25 | 0.0 | 3.2 | 0.00 | 0.00 | 0.00 | 63 | 1019.9 |
| 20260501214006 | 15 | 25 | 0.0 | 3.2 | 0.00 | 0.00 | 0.00 | 63 | 1019.9 |
| 20260501213506 | 15 | 25 | 0.0 | 0.0 | 0.00 | 0.00 | 0.00 | 62 | 1019.9 |
| 20260501213006 | 15 | 25 | 0.0 | 0.0 | 0.00 | 0.00 | 0.00 | 61 | 1019.9 |